Location: Althorst
(53.6379°N, 10.7715°E)
Time: 04:31:30
(UTC+00:00)

Cosmos 2219 Rocket - Pass Details

Date: 10 December 2019
Orbit: 826 x 848 km, 71.0° (Epoch: 22 January)

Event Time Altitude Azimuth Distance (km) Brightness Sun altitude
Rises 17:46:09 0° 244° (WSW) 3,375 6.5 -23.6°
Reaches altitude 10° 17:48:48 10° 253° (WSW) 2,448 5.7 -24.0°
Maximum altitude 17:53:54 35° 318° (NW) 1,343 3.5 -24.7°
Enters shadow 17:56:58 21° 9° (N) 1,827 3.8 -25.2°
